• In Deutschland
  • Länderverzeichnis
  • Für 7 Tage
  • Wassertemperatur
  • Satellitenkarten
  • Wetterkarte
  • Widgets
  • user-avatar
    Anmelden

    Stündliche Wetter Eisenach

    Heute, 26 April, Donnerstag

    Zeit Temperatur Niederschläge Wind Luftdruck Luftfeuchtigkeit
    00:00 +7°C° 0 mm 2 m/S 739 mmHg 91%
    01:00 +7°C° 0 mm 2 m/S 739 mmHg 92%
    02:00 +5°C° 0 mm 3 m/S 739 mmHg 92%
    03:00 +5°C° 0 mm 3 m/S 739 mmHg 92%
    04:00 +5°C° 0 mm 4 m/S 739 mmHg 92%
    05:00 +5°C° 0 mm 4 m/S 739 mmHg 90%
    06:00 +6°C° 0 mm 5 m/S 739 mmHg 87%
    07:00 +5°C° 0 mm 6 m/S 740 mmHg 84%
    08:00 +5°C° 0,1 mm 6 m/S 740 mmHg 81%
    09:00 +7°C° 0,1 mm 6 m/S 740 mmHg 78%
    10:00 +8°C° 0,1 mm 6 m/S 740 mmHg 75%
    11:00 +9°C° 0,1 mm 6 m/S 741 mmHg 69%
    12:00 +10°C° 0,1 mm 7 m/S 741 mmHg 64%
    13:00 +11°C° 0,1 mm 7 m/S 741 mmHg 58%
    14:00 +11°C° 0,2 mm 6 m/S 741 mmHg 58%
    15:00 +11°C° 0,2 mm 6 m/S 741 mmHg 57%
    16:00 +13°C° 0,2 mm 6 m/S 741 mmHg 57%
    17:00 +10°C° 0,1 mm 5 m/S 741 mmHg 62%
    18:00 +10°C° 0,1 mm 4 m/S 741 mmHg 68%
    19:00 +9°C° 0,1 mm 3 m/S 741 mmHg 74%
    20:00 +8°C° 0 mm 2 m/S 741 mmHg 78%
    21:00 +7°C° 0 mm 2 m/S 742 mmHg 82%
    22:00 +6°C° 0 mm 2 m/S 742 mmHg 86%
    23:00 +5°C° 0 mm 2 m/S 742 mmHg 87%

    Morgen, 27 April, Freitag

    Zeit Temperatur Niederschläge Wind Luftdruck Luftfeuchtigkeit
    00:00 +5°C° 0 mm 2 m/S 742 mmHg 89%
    01:00 +6°C° 0 mm 1 m/S 742 mmHg 90%
    02:00 +5°C° 0 mm 1 m/S 741 mmHg 90%
    03:00 +5°C° 0 mm 1 m/S 741 mmHg 91%
    04:00 +5°C° 0 mm 1 m/S 741 mmHg 91%
    05:00 +6°C° 0 mm 1 m/S 741 mmHg 87%
    06:00 +7°C° 0 mm 1 m/S 740 mmHg 84%
    07:00 +8°C° 0 mm 1 m/S 740 mmHg 80%
    08:00 +9°C° 0 mm 2 m/S 740 mmHg 72%
    09:00 +12°C° 0 mm 2 m/S 740 mmHg 64%
    10:00 +13°C° 0 mm 3 m/S 739 mmHg 57%
    11:00 +14°C° 0 mm 3 m/S 739 mmHg 54%
    12:00 +16°C° 0 mm 3 m/S 738 mmHg 50%
    13:00 +17°C° 0 mm 3 m/S 738 mmHg 47%
    14:00 +18°C° 0 mm 3 m/S 737 mmHg 47%
    15:00 +18°C° 0 mm 3 m/S 736 mmHg 48%
    16:00 +19°C° 0 mm 3 m/S 736 mmHg 48%
    17:00 +17°C° 0 mm 3 m/S 735 mmHg 56%
    18:00 +16°C° 0 mm 2 m/S 735 mmHg 63%
    19:00 +15°C° 0 mm 1 m/S 735 mmHg 71%
    20:00 +14°C° 0 mm 2 m/S 735 mmHg 74%
    21:00 +12°C° 0 mm 2 m/S 735 mmHg 77%
    22:00 +10°C° 0 mm 2 m/S 735 mmHg 80%
    23:00 +10°C° 0 mm 3 m/S 736 mmHg 81%

    übermorgen, 28 April, Samstag

    Zeit Temperatur Niederschläge Wind Luftdruck Luftfeuchtigkeit
    00:00 +10°C° 0 mm 3 m/S 736 mmHg 81%
    01:00 +10°C° 0 mm 3 m/S 736 mmHg 81%
    02:00 +9°C° 0 mm 3 m/S 736 mmHg 85%
    03:00 +8°C° 0 mm 4 m/S 736 mmHg 88%
    04:00 +8°C° 0 mm 4 m/S 737 mmHg 91%
    05:00 +8°C° 0 mm 5 m/S 737 mmHg 87%
    06:00 +8°C° 0 mm 5 m/S 737 mmHg 84%
    07:00 +8°C° 0 mm 6 m/S 738 mmHg 80%
    08:00 +9°C° 0 mm 6 m/S 738 mmHg 77%
    09:00 +9°C° 0 mm 6 m/S 738 mmHg 74%
    10:00 +10°C° 0 mm 6 m/S 739 mmHg 71%
    11:00 +12°C° 0 mm 5 m/S 739 mmHg 69%
    12:00 +13°C° 0 mm 5 m/S 739 mmHg 67%
    13:00 +13°C° 0 mm 4 m/S 739 mmHg 64%
    14:00 +13°C° 0,1 mm 4 m/S 739 mmHg 65%
    15:00 +13°C° 0,1 mm 3 m/S 739 mmHg 66%
    16:00 +14°C° 0,1 mm 3 m/S 739 mmHg 66%
    17:00 +13°C° 0 mm 3 m/S 739 mmHg 72%
    18:00 +13°C° 0 mm 2 m/S 739 mmHg 77%
    19:00 +12°C° 0 mm 2 m/S 739 mmHg 82%
    20:00 +10°C° 0 mm 2 m/S 740 mmHg 86%
    21:00 +8°C° 0 mm 2 m/S 740 mmHg 90%
    22:00 +7°C° 0 mm 2 m/S 740 mmHg 94%
    23:00 +7°C° 0 mm 2 m/S 740 mmHg 94%

    29 April, Sonntag

    Zeit Temperatur Niederschläge Wind Luftdruck Luftfeuchtigkeit
    00:00 +7°C° 0 mm 2 m/S 740 mmHg 95%
    01:00 +7°C° 0 mm 3 m/S 739 mmHg 95%
    02:00 +7°C° 0 mm 3 m/S 739 mmHg 95%
    03:00 +5°C° 0 mm 3 m/S 739 mmHg 95%
    04:00 +5°C° 0 mm 3 m/S 738 mmHg 95%
    05:00 +6°C° 0 mm 4 m/S 738 mmHg 93%
    06:00 +7°C° 0 mm 4 m/S 737 mmHg 91%
    07:00 +8°C° 0 mm 5 m/S 737 mmHg 89%
    08:00 +9°C° 0 mm 5 m/S 737 mmHg 85%
    09:00 +12°C° 0 mm 5 m/S 736 mmHg 81%
    10:00 +13°C° 0 mm 5 m/S 736 mmHg 77%
    11:00 +15°C° 0 mm 5 m/S 735 mmHg 74%
    12:00 +17°C° 0 mm 5 m/S 734 mmHg 71%
    13:00 +20°C° 0 mm 4 m/S 734 mmHg 67%
    14:00 +21°C° 0 mm 4 m/S 733 mmHg 67%
    15:00 +21°C° 0 mm 4 m/S 732 mmHg 68%
    16:00 +22°C° 0 mm 5 m/S 732 mmHg 68%
    17:00 +21°C° 0,1 mm 4 m/S 731 mmHg 73%
    18:00 +20°C° 0,1 mm 4 m/S 731 mmHg 78%
    19:00 +19°C° 0,1 mm 4 m/S 730 mmHg 83%
    20:00 +18°C° 0,4 mm 3 m/S 730 mmHg 87%
    21:00 +17°C° 0,4 mm 3 m/S 730 mmHg 91%
    22:00 +16°C° 0,4 mm 2 m/S 730 mmHg 94%
    23:00 +15°C° 0,6 mm 2 m/S 730 mmHg 95%

    30 April, Montag

    Zeit Temperatur Niederschläge Wind Luftdruck Luftfeuchtigkeit
    00:00 +14°C° 0,6 mm 2 m/S 730 mmHg 95%
    01:00 +14°C° 0,6 mm 2 m/S 730 mmHg 95%
    02:00 +12°C° 0,3 mm 3 m/S 730 mmHg 95%
    03:00 +12°C° 0,3 mm 3 m/S 730 mmHg 95%
    04:00 +11°C° 0,3 mm 4 m/S 731 mmHg 95%
    05:00 +11°C° 0 mm 4 m/S 731 mmHg 93%
    06:00 +10°C° 0 mm 5 m/S 732 mmHg 91%
    07:00 +10°C° 0 mm 5 m/S 732 mmHg 90%
    08:00 +10°C° 0,2 mm 5 m/S 733 mmHg 88%
    09:00 +9°C° 0,2 mm 6 m/S 733 mmHg 87%
    10:00 +9°C° 0,2 mm 6 m/S 734 mmHg 86%
    11:00 +10°C° 0,1 mm 6 m/S 734 mmHg 80%
    12:00 +10°C° 0,1 mm 7 m/S 735 mmHg 74%
    13:00 +11°C° 0,1 mm 7 m/S 735 mmHg 69%
    14:00 +11°C° 0 mm 7 m/S 735 mmHg 65%
    15:00 +11°C° 0 mm 7 m/S 736 mmHg 62%
    16:00 +11°C° 0 mm 7 m/S 736 mmHg 58%
    17:00 +11°C° 0 mm 6 m/S 736 mmHg 62%
    18:00 +10°C° 0 mm 5 m/S 736 mmHg 65%
    19:00 +10°C° 0 mm 4 m/S 736 mmHg 69%
    20:00 +8°C° 0 mm 4 m/S 737 mmHg 71%
    21:00 +7°C° 0 mm 4 m/S 737 mmHg 73%
    22:00 +6°C° 0 mm 4 m/S 738 mmHg 75%
    23:00 +6°C° 0 mm 4 m/S 738 mmHg 78%

    1 Mai, Dienstag

    Zeit Temperatur Niederschläge Wind Luftdruck Luftfeuchtigkeit
    00:00 +5°C° 0 mm 4 m/S 738 mmHg 80%
    01:00 +5°C° 0 mm 4 m/S 738 mmHg 83%
    02:00 +5°C° 0 mm 4 m/S 739 mmHg 85%
    03:00 +4°C° 0 mm 4 m/S 739 mmHg 87%
    04:00 +4°C° 0 mm 4 m/S 739 mmHg 89%
    05:00 +5°C° 0 mm 4 m/S 739 mmHg 85%
    06:00 +6°C° 0 mm 4 m/S 740 mmHg 81%
    07:00 +7°C° 0 mm 5 m/S 740 mmHg 77%
    08:00 +8°C° 0 mm 5 m/S 740 mmHg 70%
    09:00 +10°C° 0 mm 5 m/S 740 mmHg 64%
    10:00 +12°C° 0 mm 5 m/S 740 mmHg 57%
    11:00 +13°C° 0 mm 5 m/S 740 mmHg 54%
    12:00 +14°C° 0 mm 5 m/S 740 mmHg 51%
    13:00 +15°C° 0 mm 5 m/S 740 mmHg 48%
    14:00 +15°C° 0 mm 5 m/S 740 mmHg 48%
    15:00 +15°C° 0 mm 4 m/S 740 mmHg 48%
    16:00 +15°C° 0 mm 4 m/S 740 mmHg 48%
    17:00 +14°C° 0 mm 3 m/S 740 mmHg 55%
    18:00 +12°C° 0 mm 3 m/S 740 mmHg 61%
    19:00 +12°C° 0 mm 2 m/S 740 mmHg 68%
    20:00 +9°C° 0 mm 2 m/S 741 mmHg 71%
    21:00 +8°C° 0 mm 2 m/S 741 mmHg 74%
    22:00 +7°C° 0 mm 2 m/S 742 mmHg 77%
    23:00 +6°C° 0 mm 2 m/S 742 mmHg 78%
    Mehr zeigen